[[{"header":{"parameterUnit":"m.s-1","parameterCategory":2,"la1":30.2992,"la2":30.254,"lo1":-89.0895,"lo2":-89.0443,"dy":0.0025,"dx":0.0025,"nx":19,"ny":19,"refTime":"2026-04-16T03:00:00:Z","depth":"0","parameterNumber":2,"parameterNumberName":"U-component_of_CURRENTS"},"data":[0,0,0,-0.1359,-0.136,-0.1446,-0.1446,-0.1581,-0.1582,0,0,0,0,0,0,0,0,0,0,0,-0.1306,-0.1305,-0.1358,-0.136,-0.1446,-0.1446,-0.1581,-0.1582,0,0,0,0,0,0,0,0,0,0,0,-0.1306,-0.1305,-0.1305,-0.1361,-0.1446,-0.1446,-0.158,-0.151,0,0,0,0,0,0,0,0,0,0,-0.1424,-0.1365,-0.1305,-0.1305,-0.1361,-0.1446,-0.1446,-0.1507,-0.1515,-0.1548,0,-0.1542,0,-0.1575,-0.1591,-0.1592,0,0,0,-0.1363,-0.1358,-0.139,-0.1305,-0.1362,-0.1446,-0.1408,-0.1511,-0.152,-0.1559,-0.1544,-0.155,-0.1578,-0.1592,-0.1593,-0.1645,-0.1645,0,0,-0.1359,-0.132,-0.1384,-0.1395,-0.136,-0.1405,-0.1411,-0.1516,-0.151,-0.1544,-0.1553,-0.158,-0.1593,-0.1594,-0.1646,-0.1645,0,0,0,-0.1343,-0.1316,-0.1346,-0.1389,-0.1408,-0.1408,-0.1414,-0.1505,-0.1517,-0.1555,-0.1581,-0.1594,-0.1596,-0.1646,-0.1645,-0.1549,0,0,0,-0.134,-0.1308,-0.1343,-0.1321,-0.1405,-0.1455,-0.14,-0.1508,-0.1522,-0.1581,-0.1594,-0.1597,-0.1647,-0.1646,-0.1552,-0.1478,0,0,0,-0.1306,-0.1305,-0.1309,-0.1319,-0.1359,-0.1453,-0.1471,-0.1512,-0.1539,-0.1592,-0.1597,-0.1647,-0.1646,-0.1556,-0.1485,-0.1376,0,0,0,-0.1274,-0.127,-0.1307,-0.1314,-0.1358,-0.1412,-0.147,-0.1517,-0.1556,-0.1595,-0.1647,-0.1645,-0.1557,-0.149,-0.1381,-0.1208,-0.117,0,0,-0.1257,-0.1266,-0.1275,-0.1312,-0.133,-0.1402,-0.1416,-0.1489,-0.155,-0.1616,-0.1617,-0.1551,-0.1486,-0.1377,-0.1144,-0.1107,0,0,0,-0.1264,-0.1251,-0.1269,-0.1285,-0.1344,-0.135,-0.144,-0.1464,-0.1504,-0.1568,-0.1555,-0.1517,-0.1451,-0.1359,-0.133,-0.1072,-0.164,-0.164,-0.164,-0.1169,-0.1209,-0.1199,-0.1237,-0.1266,-0.1322,-0.1329,-0.1373,-0.1465,-0.1452,-0.1443,-0.1297,-0.12,-0.1175,-0.0913,-0.1465,-0.1465,-0.1465,-0.1464,-0.1105,-0.1095,-0.1121,-0.1128,-0.1152,-0.1169,-0.1217,-0.1255,-0.1247,-0.1347,-0.1289,-0.1268,-0.1137,-0.0869,-0.1458,-0.1459,-0.146,-0.1461,-0.1461,-0.1024,-0.1025,-0.1029,-0.1025,-0.1004,-0.1058,-0.1002,-0.1065,-0.1123,-0.1088,-0.0975,-0.0976,-0.0732,-0.1056,-0.1055,-0.1055,-0.1054,-0.1053,-0.1053,-0.095,-0.0951,-0.0922,-0.0919,-0.0902,-0.0875,-0.0872,-0.0848,-0.0795,-0.0822,-0.0821,-0.0624,-0.1171,-0.1178,-0.104,-0.1043,-0.1044,-0.1045,-0.1046,-0.0873,-0.0875,-0.083,-0.0805,-0.0751,-0.0668,-0.0671,-0.0533,-0.0488,-0.0415,-0.0187,-0.0676,-0.0676,-0.07,-0.0694,-0.044,-0.044,-0.044,-0.044,-0.0817,-0.0817,-0.0739,-0.0675,-0.06,-0.0565,-0.0388,-0.0259,0.0005,0.0209,0.0207,0.0177,0.014,0.0184,0.0141,0.016,0.0626,0.0627,0.0629,-0.0762,-0.0755,-0.067,-0.0616,-0.0526,-0.0448,-0.0275,0.0004,0.0492,0.0691,0.0546,0.0501,0.0461,0.0382,0.0438,0.0357,0.0379,0,0]},{"header":{"parameterUnit":"m.s-1","parameterCategory":2,"la1":30.2992,"la2":30.254,"lo1":-89.0895,"lo2":-89.0443,"dy":0.0025,"dx":0.0025,"nx":19,"ny":19,"refTime":"2026-04-16T03:00:00:Z","depth":"0","parameterNumber":3,"parameterNumberName":"V-component_of_CURRENTS"},"data":[0,0,0,0.0068,0.0069,0.0122,0.0123,0.0207,0.0208,0,0,0,0,0,0,0,0,0,0,0,0.0049,0.0049,0.0068,0.0069,0.0122,0.0123,0.0207,0.0208,0,0,0,0,0,0,0,0,0,0,0,0.0049,0.0049,0.0049,0.0069,0.0122,0.0123,0.0207,0.0166,0,0,0,0,0,0,0,0,0,0,0.0113,0.0083,0.0049,0.0049,0.0069,0.0122,0.0123,0.0164,0.0168,0.0183,0,0.0182,0,0.0192,0.0213,0.0213,0,0,0,0.0082,0.0079,0.0096,0.0049,0.007,0.0122,0.0102,0.0166,0.0171,0.0189,0.0183,0.0186,0.0193,0.0213,0.0213,0.0174,0.0173,0,0,0.0079,0.006,0.0092,0.0099,0.0072,0.01,0.0103,0.0169,0.0168,0.0184,0.0188,0.0195,0.0213,0.0214,0.0175,0.0174,0,0,0,0.0062,0.0057,0.0073,0.0096,0.0101,0.0101,0.0105,0.0165,0.0171,0.0189,0.0196,0.0214,0.0215,0.0176,0.0175,0.0081,0,0,0,0.0061,0.0047,0.0072,0.0061,0.0099,0.013,0.0099,0.0167,0.0174,0.0195,0.0214,0.0215,0.0177,0.0176,0.0086,0.0067,0,0,0,0.0048,0.0045,0.0048,0.006,0.0078,0.0129,0.0139,0.0169,0.0178,0.0213,0.0216,0.0178,0.0176,0.009,0.0073,0.0064,0,0,0,0.0032,0.0008,0.0048,0.001,0.0077,0.0047,0.0139,0.0135,0.0153,0.0214,0.0177,0.0175,0.0092,0.0077,0.0068,0.0118,0.0107,0,0,-0.0011,0.0003,-0.0024,0.0012,-0.0038,0.0041,-0.0003,0.0072,0.0125,0.0162,0.0161,0.0084,0.0074,0.0065,-0.0015,-0.0022,0,0,0,-0.0048,-0.0062,-0.0075,-0.0091,-0.0093,-0.008,-0.0022,0.0004,0.0037,0.0125,0.0064,0.006,0.0058,0.0094,0.0087,0.0219,0.0164,0.0165,0.0165,-0.0113,-0.0122,-0.017,-0.0178,-0.0193,-0.0166,-0.0155,-0.0107,-0.0052,-0.0064,-0.0033,-0.0124,-0.0091,-0.0094,0.0039,-0.0062,-0.0063,-0.0063,-0.0063,-0.0181,-0.02,-0.0222,-0.0265,-0.0262,-0.0284,-0.0255,-0.0218,-0.0197,-0.0148,-0.0146,-0.0027,-0.0106,0.0038,-0.007,-0.0069,-0.0068,-0.0067,-0.0067,-0.0207,-0.0213,-0.0248,-0.0299,-0.0331,-0.0324,-0.0313,-0.0293,-0.0266,-0.0274,-0.0182,-0.0179,-0.0032,-0.026,-0.026,-0.026,-0.0261,-0.0261,-0.0261,-0.0199,-0.0234,-0.0269,-0.0323,-0.0344,-0.0354,-0.0339,-0.0326,-0.0296,-0.0266,-0.0265,-0.0053,-0.0182,-0.0151,-0.0264,-0.0263,-0.0263,-0.0262,-0.0262,-0.0184,-0.0211,-0.0254,-0.0284,-0.0327,-0.0313,-0.0321,-0.0286,-0.0284,-0.027,-0.0086,-0.025,-0.0198,-0.0191,-0.016,-0.0268,-0.0268,-0.0268,-0.0268,-0.0161,-0.0185,-0.0215,-0.0242,-0.0268,-0.0277,-0.019,-0.0121,-0.0056,0.0012,-0.0017,0.0041,0.0035,0.0105,0.0105,0.0144,0.0116,0.0116,0.0117,-0.0136,-0.0157,-0.0152,-0.0199,-0.0229,-0.0218,-0.0089,0.0175,0.0249,0.0145,0.0152,0.0136,0.0233,0.0214,0.0335,0.0324,0.0394,0,0]}],[{"header":{"parameterUnit":"m.s-1","parameterCategory":2,"la1":30.2992,"la2":30.254,"lo1":-89.0895,"lo2":-89.0443,"dy":0.0025,"dx":0.0025,"nx":19,"ny":19,"refTime":"2026-04-16T03:00:00:Z","depth":"2","parameterNumber":2,"parameterNumberName":"U-component_of_CURRENTS"},"data":[0,0,0,-0.0853,-0.0855,-0.0937,-0.0937,-0.0956,-0.0956,0,0,0,0,0,0,0,0,0,0,0,-0.0827,-0.0828,-0.0853,-0.0855,-0.0937,-0.0937,-0.0956,-0.0956,0,0,0,0,0,0,0,0,0,0,0,-0.0827,-0.0828,-0.0829,-0.0856,-0.0937,-0.0937,-0.0956,-0.0915,0,0,0,0,0,0,0,0,0,0,-0.0846,-0.0847,-0.0827,-0.0829,-0.0856,-0.0937,-0.0937,-0.0914,-0.0917,-0.0895,0,-0.0917,0,-0.0936,-0.0956,-0.0956,0,0,0,-0.0852,-0.0844,-0.0855,-0.0829,-0.0857,-0.0937,-0.0899,-0.0916,-0.092,-0.09,-0.0918,-0.0919,-0.0936,-0.0956,-0.0955,-0.0869,-0.0868,0,0,-0.0847,-0.0849,-0.0852,-0.0858,-0.0888,-0.0897,-0.0902,-0.092,-0.0933,-0.0918,-0.092,-0.0937,-0.0955,-0.0955,-0.087,-0.0869,0,0,0,-0.0837,-0.0846,-0.0858,-0.0856,-0.0878,-0.0899,-0.0905,-0.0932,-0.0934,-0.092,-0.0937,-0.0955,-0.0955,-0.0871,-0.0869,-0.0811,0,0,0,-0.0834,-0.084,-0.0856,-0.0859,-0.0878,-0.0921,-0.0917,-0.0933,-0.0935,-0.0937,-0.0955,-0.0955,-0.0872,-0.087,-0.0815,-0.0779,0,0,0,-0.0821,-0.0839,-0.0849,-0.0859,-0.0895,-0.0921,-0.0925,-0.0934,-0.0945,-0.0956,-0.0955,-0.0872,-0.087,-0.0818,-0.0785,-0.0699,0,0,0,-0.0818,-0.0827,-0.085,-0.0873,-0.0894,-0.0901,-0.0925,-0.0952,-0.0963,-0.0955,-0.0872,-0.0869,-0.0819,-0.0788,-0.0703,-0.0513,-0.0478,0,0,-0.0817,-0.0828,-0.0839,-0.0861,-0.0855,-0.0889,-0.0858,-0.0897,-0.0912,-0.0862,-0.0861,-0.0813,-0.0785,-0.0699,-0.0389,-0.0358,0,0,0,-0.083,-0.0831,-0.0838,-0.0851,-0.0862,-0.0829,-0.0866,-0.0853,-0.0824,-0.0909,-0.0786,-0.0769,-0.0717,-0.0611,-0.0585,-0.0859,-0.0859,-0.086,-0.086,-0.0797,-0.0809,-0.0801,-0.08,-0.0799,-0.0787,-0.0757,-0.0732,-0.0771,-0.0736,-0.0701,-0.0568,-0.0453,-0.0432,-0.0684,-0.0684,-0.0683,-0.0683,-0.0683,-0.0758,-0.0748,-0.0748,-0.0743,-0.071,-0.0681,-0.0627,-0.0635,-0.0546,-0.0607,-0.056,-0.053,-0.0401,-0.0678,-0.0679,-0.068,-0.068,-0.068,-0.0681,-0.0732,-0.0718,-0.0726,-0.0683,-0.0626,-0.0599,-0.0488,-0.0481,-0.048,-0.0434,-0.0298,-0.0297,-0.053,-0.0404,-0.0403,-0.0402,-0.0402,-0.0402,-0.0401,-0.0691,-0.0687,-0.0641,-0.0604,-0.0555,-0.048,-0.0398,-0.0331,-0.0218,-0.0194,-0.0193,-0.0473,-0.0482,-0.0512,-0.0393,-0.0394,-0.0395,-0.0396,-0.0397,-0.0641,-0.0632,-0.0554,-0.0502,-0.0374,-0.025,-0.0205,-0.001,0.0061,0.0158,-0.0042,-0.0053,-0.0046,-0.0065,-0.0082,0.0141,0.0141,0.0141,0.0141,-0.0587,-0.0582,-0.0436,-0.0317,-0.0189,-0.0121,0.0113,0.0279,0.0342,0.0389,0.0377,0.0344,0.0319,0.0341,0.0312,0.0299,0.0622,0.0622,0.0623,-0.0516,-0.0483,-0.0347,-0.024,-0.0089,0.0019,0.0236,0.0502,0.0693,0.0632,0.0363,0.0192,0.011,0.0083,0.0084,0.0051,0.0016,0,0]},{"header":{"parameterUnit":"m.s-1","parameterCategory":2,"la1":30.2992,"la2":30.254,"lo1":-89.0895,"lo2":-89.0443,"dy":0.0025,"dx":0.0025,"nx":19,"ny":19,"refTime":"2026-04-16T03:00:00:Z","depth":"2","parameterNumber":3,"parameterNumberName":"V-component_of_CURRENTS"},"data":[0,0,0,-0.05,-0.05,-0.0444,-0.0444,-0.0327,-0.0326,0,0,0,0,0,0,0,0,0,0,0,-0.0514,-0.0514,-0.0501,-0.05,-0.0444,-0.0444,-0.0328,-0.0326,0,0,0,0,0,0,0,0,0,0,0,-0.0514,-0.0514,-0.0514,-0.05,-0.0444,-0.0444,-0.0328,-0.0377,0,0,0,0,0,0,0,0,0,0,-0.0435,-0.0451,-0.0514,-0.0514,-0.05,-0.0444,-0.0444,-0.0379,-0.0374,-0.0345,0,-0.0346,0,-0.0343,-0.0319,-0.0319,0,0,0,-0.0482,-0.0455,-0.0454,-0.0514,-0.0499,-0.0445,-0.0464,-0.0376,-0.037,-0.0338,-0.0344,-0.034,-0.0341,-0.0319,-0.0318,-0.0249,-0.0249,0,0,-0.0485,-0.0486,-0.0459,-0.0451,-0.0495,-0.0466,-0.0463,-0.0373,-0.0361,-0.0344,-0.0338,-0.0339,-0.0318,-0.0317,-0.0249,-0.0249,0,0,0,-0.0506,-0.0488,-0.0489,-0.0455,-0.0454,-0.0465,-0.0461,-0.0364,-0.0369,-0.0336,-0.0337,-0.0317,-0.0316,-0.0249,-0.0249,-0.0283,0,0,0,-0.0507,-0.0502,-0.0491,-0.0488,-0.0456,-0.0413,-0.0454,-0.0375,-0.0365,-0.0338,-0.0317,-0.0315,-0.0249,-0.0249,-0.0282,-0.0291,0,0,0,-0.0515,-0.0502,-0.0503,-0.0489,-0.0475,-0.0415,-0.0413,-0.0373,-0.0366,-0.0319,-0.0315,-0.0249,-0.0249,-0.0282,-0.029,-0.0292,0,0,0,-0.0508,-0.0526,-0.0502,-0.0517,-0.0476,-0.0466,-0.0413,-0.038,-0.0343,-0.0317,-0.0249,-0.0249,-0.0281,-0.0289,-0.0292,-0.0251,-0.0251,0,0,-0.0535,-0.0529,-0.054,-0.0519,-0.0512,-0.0471,-0.045,-0.0374,-0.0333,-0.0272,-0.027,-0.0283,-0.0289,-0.0292,-0.0257,-0.0257,0,0,0,-0.0552,-0.0554,-0.0551,-0.0535,-0.0519,-0.0474,-0.0417,-0.0392,-0.0328,-0.0316,-0.0275,-0.0278,-0.0279,-0.0252,-0.0252,-0.0249,-0.0249,-0.0249,-0.0249,-0.0563,-0.0559,-0.0556,-0.0539,-0.052,-0.0467,-0.044,-0.0388,-0.0349,-0.0329,-0.0301,-0.0318,-0.0291,-0.029,-0.0297,-0.0298,-0.0298,-0.0298,-0.0298,-0.0585,-0.0577,-0.0547,-0.0543,-0.0495,-0.0462,-0.0423,-0.0398,-0.0361,-0.0331,-0.033,-0.0283,-0.0292,-0.0301,-0.03,-0.03,-0.0299,-0.0299,-0.0299,-0.0584,-0.0576,-0.0569,-0.0536,-0.0486,-0.0443,-0.0421,-0.0398,-0.0374,-0.0376,-0.0321,-0.0319,-0.0336,-0.0363,-0.0363,-0.0363,-0.0364,-0.0364,-0.0364,-0.0576,-0.057,-0.0548,-0.0521,-0.0488,-0.045,-0.0417,-0.041,-0.0373,-0.0346,-0.0345,-0.034,-0.0338,-0.0339,-0.0365,-0.0364,-0.0364,-0.0364,-0.0364,-0.0565,-0.0556,-0.0534,-0.0511,-0.0466,-0.0438,-0.0423,-0.0381,-0.0378,-0.0352,-0.0329,-0.0329,-0.031,-0.0309,-0.0309,-0.0325,-0.0325,-0.0325,-0.0325,-0.0541,-0.0542,-0.0494,-0.047,-0.0459,-0.043,-0.0352,-0.0238,-0.0215,-0.0163,-0.0169,-0.014,-0.0146,-0.0115,-0.0119,-0.0113,-0.0079,-0.0078,-0.0078,-0.051,-0.0501,-0.0461,-0.0449,-0.0445,-0.042,-0.027,0.0034,0.0135,-0.0064,-0.0087,-0.0316,-0.0292,-0.0294,-0.0261,-0.026,-0.0258,0,0]}],[{"header":{"parameterUnit":"m.s-1","parameterCategory":2,"la1":30.2992,"la2":30.254,"lo1":-89.0895,"lo2":-89.0443,"dy":0.0025,"dx":0.0025,"nx":19,"ny":19,"refTime":"2026-04-16T03:00:00:Z","depth":"4","parameterNumber":2,"parameterNumberName":"U-component_of_CURRENTS"},"data":[0,0,0,-0.0127,-0.0129,-0.0231,-0.0232,-0.0342,-0.0343,0,0,0,0,0,0,0,0,0,0,0,-0.0088,-0.0089,-0.0127,-0.0129,-0.0231,-0.0232,-0.0342,-0.0343,0,0,0,0,0,0,0,0,0,0,0,-0.0088,-0.0089,-0.0089,-0.0129,-0.0231,-0.0232,-0.0342,-0.0273,0,0,0,0,0,0,0,0,0,0,-0.0177,-0.0146,-0.0088,-0.0089,-0.013,-0.0231,-0.0232,-0.0269,-0.0277,-0.0287,0,-0.0295,0,-0.0319,-0.0349,-0.0349,0,0,0,-0.014,-0.014,-0.016,-0.0089,-0.0131,-0.0231,-0.0188,-0.0274,-0.0282,-0.0297,-0.0297,-0.0302,-0.032,-0.035,-0.035,-0.0425,-0.0425,0,0,-0.0134,-0.0118,-0.0154,-0.0165,-0.0147,-0.0185,-0.0191,-0.0279,-0.0288,-0.0298,-0.0305,-0.0322,-0.035,-0.0351,-0.0425,-0.0425,0,0,0,-0.0111,-0.0114,-0.0132,-0.016,-0.0178,-0.0187,-0.0195,-0.0284,-0.0288,-0.0306,-0.0324,-0.0351,-0.0352,-0.0424,-0.0425,-0.0408,0,0,0,-0.0108,-0.0099,-0.0129,-0.0122,-0.0176,-0.0237,-0.0197,-0.0282,-0.0292,-0.0323,-0.0351,-0.0353,-0.0424,-0.0424,-0.0408,-0.0389,0,0,0,-0.0085,-0.0098,-0.0104,-0.0121,-0.016,-0.0236,-0.0246,-0.0285,-0.0303,-0.035,-0.0353,-0.0424,-0.0424,-0.0408,-0.039,-0.0358,0,0,0,-0.0073,-0.0087,-0.0104,-0.013,-0.0159,-0.0227,-0.0246,-0.0313,-0.0355,-0.0351,-0.0424,-0.0425,-0.0408,-0.0391,-0.0359,-0.0251,0,0,0,-0.0083,-0.0088,-0.0104,-0.0121,-0.0169,-0.0214,-0.0274,-0.0338,-0.036,-0.0395,-0.0398,-0.0408,-0.039,-0.0359,-0.0274,0,0,0,0,-0.0102,-0.011,-0.0129,-0.0161,-0.0211,-0.026,-0.0327,-0.0347,-0.039,-0.0384,-0.042,-0.0409,-0.0389,-0.033,-0.0426,-0.0426,-0.0426,-0.0426,-0.0426,-0.0096,-0.0119,-0.015,-0.0187,-0.0229,-0.0302,-0.0336,-0.0373,-0.04,-0.0413,-0.0405,-0.0382,-0.0321,-0.0422,-0.0422,-0.0422,-0.0422,-0.0422,-0.0422,-0.0108,-0.0121,-0.0156,-0.019,-0.0237,-0.0287,-0.0345,-0.0366,-0.0378,-0.0403,-0.0385,-0.033,-0.0421,-0.0421,-0.0421,-0.0421,-0.0421,-0.0421,-0.0422,-0.0094,-0.0103,-0.0127,-0.0167,-0.0216,-0.0274,-0.0288,-0.0331,-0.0351,-0.0345,-0.0267,-0.0361,-0.035,-0.0331,-0.0331,-0.0331,-0.0331,-0.0331,-0.033,-0.0065,-0.0092,-0.0102,-0.0148,-0.0171,-0.0208,-0.0255,-0.0241,-0.0264,-0.0227,-0.033,-0.0351,-0.0354,-0.0345,-0.0327,-0.0328,-0.0328,-0.0329,-0.0329,-0.004,-0.0051,-0.006,-0.0076,-0.0125,-0.0155,-0.0194,-0.0129,-0.01,-0.0051,-0.016,-0.0169,-0.0157,-0.0165,-0.0149,-0.0072,-0.0071,-0.0069,0,-0.0014,-0.0023,-0.003,-0.0045,-0.0065,-0.0127,-0.0056,-0.0036,-0.0033,-0.0041,-0.0125,-0.0255,-0.026,-0.0255,-0.0259,-0.0244,0,0,0,0.0003,-0.0004,0.0003,-0.0019,-0.0047,-0.0034,-0.0043,0.0,-0.0051,0.0067,-0.0031,-0.0041,-0.0182,-0.0317,-0.0321,-0.0324,-0.031,0,0]},{"header":{"parameterUnit":"m.s-1","parameterCategory":2,"la1":30.2992,"la2":30.254,"lo1":-89.0895,"lo2":-89.0443,"dy":0.0025,"dx":0.0025,"nx":19,"ny":19,"refTime":"2026-04-16T03:00:00:Z","depth":"4","parameterNumber":3,"parameterNumberName":"V-component_of_CURRENTS"},"data":[0,0,0,-0.0475,-0.0475,-0.0476,-0.0476,-0.0395,-0.0394,0,0,0,0,0,0,0,0,0,0,0,-0.0474,-0.0474,-0.0475,-0.0475,-0.0476,-0.0476,-0.0395,-0.0394,0,0,0,0,0,0,0,0,0,0,0,-0.0474,-0.0474,-0.0474,-0.0475,-0.0476,-0.0476,-0.0395,-0.0413,0,0,0,0,0,0,0,0,0,0,-0.0421,-0.044,-0.0474,-0.0474,-0.0475,-0.0476,-0.0476,-0.0415,-0.0412,-0.0373,0,-0.0381,0,-0.0387,-0.0387,-0.0387,0,0,0,-0.0467,-0.0442,-0.044,-0.0474,-0.0475,-0.0476,-0.0473,-0.0414,-0.041,-0.0369,-0.038,-0.0378,-0.0386,-0.0387,-0.0386,-0.03,-0.03,0,0,-0.0467,-0.0472,-0.0442,-0.0438,-0.0483,-0.0473,-0.0474,-0.0413,-0.0412,-0.038,-0.0376,-0.0384,-0.0386,-0.0385,-0.03,-0.03,0,0,0,-0.0472,-0.0472,-0.0473,-0.0441,-0.0448,-0.0474,-0.0474,-0.0415,-0.0415,-0.0376,-0.0383,-0.0385,-0.0384,-0.0301,-0.03,-0.0328,0,0,0,-0.0472,-0.0476,-0.0473,-0.0475,-0.045,-0.0444,-0.0477,-0.0419,-0.0413,-0.0384,-0.0385,-0.0383,-0.0301,-0.0301,-0.0328,-0.0339,0,0,0,-0.0473,-0.0476,-0.0478,-0.0476,-0.048,-0.0446,-0.0442,-0.0418,-0.0417,-0.0387,-0.0383,-0.0301,-0.0301,-0.0327,-0.0338,-0.0304,0,0,0,-0.0474,-0.0484,-0.0479,-0.0487,-0.048,-0.0463,-0.0443,-0.0427,-0.0404,-0.0385,-0.0301,-0.03,-0.0327,-0.0338,-0.0304,-0.0219,0,0,0,-0.0486,-0.0485,-0.0489,-0.0484,-0.0473,-0.0462,-0.0443,-0.041,-0.038,-0.0314,-0.0313,-0.0328,-0.0338,-0.0304,-0.0191,0,0,0,0,-0.0492,-0.0494,-0.0488,-0.0484,-0.0468,-0.0447,-0.0422,-0.0399,-0.0355,-0.0367,-0.031,-0.0315,-0.0293,-0.0243,-0.0298,-0.0298,-0.0298,-0.0298,-0.0298,-0.0498,-0.0494,-0.0492,-0.048,-0.0465,-0.0433,-0.0413,-0.0374,-0.0348,-0.0332,-0.0325,-0.0301,-0.0249,-0.031,-0.031,-0.031,-0.031,-0.031,-0.031,-0.05,-0.05,-0.0492,-0.0492,-0.0467,-0.0448,-0.0396,-0.0381,-0.0327,-0.0321,-0.0298,-0.0261,-0.0312,-0.0312,-0.0312,-0.0311,-0.0311,-0.0311,-0.0311,-0.0495,-0.0497,-0.0504,-0.0503,-0.0487,-0.0458,-0.0413,-0.039,-0.0345,-0.0333,-0.0241,-0.0301,-0.0312,-0.0309,-0.0309,-0.0309,-0.0309,-0.0309,-0.0309,-0.0488,-0.0496,-0.0505,-0.0505,-0.0503,-0.0477,-0.042,-0.0368,-0.033,-0.0252,-0.0328,-0.03,-0.03,-0.031,-0.0308,-0.0308,-0.0308,-0.0308,-0.0308,-0.0489,-0.0493,-0.0502,-0.0506,-0.0488,-0.0456,-0.0419,-0.0278,-0.0213,-0.0141,-0.0191,-0.0197,-0.0171,-0.0173,-0.0178,-0.0137,-0.0136,-0.0135,0,-0.0486,-0.0489,-0.0497,-0.0494,-0.046,-0.0436,-0.0296,-0.0223,-0.0163,-0.0162,-0.0244,-0.031,-0.0311,-0.0292,-0.0292,-0.0303,0,0,0,-0.0485,-0.0484,-0.0488,-0.0485,-0.0445,-0.0313,-0.0253,-0.0189,-0.0184,-0.006,-0.0106,-0.0114,-0.0236,-0.0303,-0.0276,-0.0276,-0.029,0,0]}]]